TimeCDT,TemperatureF,Dew PointF,Humidity,Sea Level PressureIn,VisibilityMPH,Wind Direction,Wind SpeedMPH,Gust SpeedMPH,PrecipitationIn,Events,Conditions,WindDirDegrees,DateUTC
12:53 AM,41.0,39.9,96,29.81,10.0,Calm,Calm,-,N/A,,Clear,0,2011-10-12 05:53:00
1:45 AM,42.8,42.8,100,29.80,2.0,Calm,Calm,-,N/A,,Clear,0,2011-10-12 06:45:00
1:53 AM,41.0,41.0,100,29.80,1.8,Calm,Calm,-,N/A,,Clear,0,2011-10-12 06:53:00
2:02 AM,41.0,39.2,93,29.80,0.8,Calm,Calm,-,N/A,,Clear,0,2011-10-12 07:02:00
2:07 AM,41.0,41.0,100,29.80,2.0,Calm,Calm,-,N/A,,Clear,0,2011-10-12 07:07:00
2:17 AM,39.2,39.2,100,29.80,1.0,Calm,Calm,-,N/A,,Clear,0,2011-10-12 07:17:00
2:24 AM,39.2,39.2,100,29.79,4.0,Calm,Calm,-,N/A,,Clear,0,2011-10-12 07:24:00
2:51 AM,41.0,41.0,100,29.79,1.8,Calm,Calm,-,N/A,,Clear,0,2011-10-12 07:51:00
2:53 AM,41.0,41.0,100,29.80,2.0,Calm,Calm,-,N/A,,Clear,0,2011-10-12 07:53:00
3:00 AM,39.2,39.2,100,29.78,1.2,Calm,Calm,-,N/A,,Clear,0,2011-10-12 08:00:00
3:06 AM,39.2,39.2,100,29.78,3.0,Calm,Calm,-,N/A,,Clear,0,2011-10-12 08:06:00
3:53 AM,39.9,39.9,100,29.78,10.0,Calm,Calm,-,N/A,,Partly Cloudy,0,2011-10-12 08:53:00
4:53 AM,41.0,41.0,100,29.78,10.0,Calm,Calm,-,N/A,,Clear,0,2011-10-12 09:53:00
5:29 AM,39.2,39.2,100,29.77,1.8,Calm,Calm,-,N/A,,Mostly Cloudy,0,2011-10-12 10:29:00
5:42 AM,39.2,39.2,100,29.77,0.8,Calm,Calm,-,N/A,,Mostly Cloudy,0,2011-10-12 10:42:00
5:49 AM,41.0,39.2,93,29.77,0.2,Calm,Calm,-,N/A,Fog,Fog,0,2011-10-12 10:49:00
5:53 AM,41.0,39.9,96,29.78,0.5,Calm,Calm,-,N/A,Fog,Fog,0,2011-10-12 10:53:00
5:58 AM,39.2,39.2,100,29.77,2.0,Calm,Calm,-,N/A,,Mostly Cloudy,0,2011-10-12 10:58:00
6:05 AM,39.2,39.2,100,29.77,5.0,Calm,Calm,-,N/A,,Mostly Cloudy,0,2011-10-12 11:05:00
6:12 AM,41.0,41.0,100,29.77,3.0,Calm,Calm,-,N/A,,Mostly Cloudy,0,2011-10-12 11:12:00
6:37 AM,41.0,41.0,100,29.77,1.8,Calm,Calm,-,N/A,,Mostly Cloudy,0,2011-10-12 11:37:00
6:42 AM,41.0,41.0,100,29.77,3.0,Calm,Calm,-,N/A,,Mostly Cloudy,0,2011-10-12 11:42:00
6:53 AM,42.1,41.0,96,29.79,10.0,Calm,Calm,-,N/A,,Mostly Cloudy,0,2011-10-12 11:53:00
7:53 AM,46.0,45.0,96,29.79,7.0,Calm,Calm,-,0.00,,Overcast,0,2011-10-12 12:53:00
8:53 AM,52.0,51.1,97,29.78,7.0,SE,4.6,-,N/A,,Overcast,130,2011-10-12 13:53:00
9:53 AM,55.9,54.0,93,29.76,10.0,SE,8.1,-,N/A,,Overcast,130,2011-10-12 14:53:00
10:53 AM,60.1,55.0,83,29.75,10.0,SE,8.1,16.1,N/A,,Clear,140,2011-10-12 15:53:00
11:53 AM,64.0,55.0,73,29.75,10.0,SSE,6.9,-,N/A,,Mostly Cloudy,150,2011-10-12 16:53:00
12:53 PM,64.0,54.0,70,29.74,10.0,SSW,6.9,-,N/A,,Overcast,210,2011-10-12 17:53:00
1:53 PM,64.9,54.0,68,29.73,10.0,Variable,5.8,-,N/A,,Overcast,0,2011-10-12 18:53:00
2:53 PM,60.1,54.0,80,29.71,10.0,WNW,8.1,-,0.00,,Overcast,300,2011-10-12 19:53:00
3:53 PM,57.2,55.4,94,29.69,10.0,West,4.6,-,N/A,,Overcast,280,2011-10-12 20:53:00
4:24 PM,57.2,55.4,94,29.68,6.0,WSW,3.5,-,0.01,Rain-Thunderstorm,Light Rain,250,2011-10-12 21:24:00
4:39 PM,57.2,55.4,94,29.71,10.0,Variable,3.5,-,0.02,Rain,Light Rain,0,2011-10-12 21:39:00
4:53 PM,57.0,55.9,96,29.73,4.0,West,5.8,-,0.05,Rain,Rain,260,2011-10-12 21:53:00
5:30 PM,55.4,55.4,100,29.73,5.0,South,5.8,-,0.07,Rain,Rain,170,2011-10-12 22:30:00
5:53 PM,55.9,55.0,97,29.75,5.0,South,4.6,-,0.15,Rain,Rain,180,2011-10-12 22:53:00
6:53 PM,55.0,53.1,93,29.71,10.0,Calm,Calm,-,0.08,,Overcast,0,2011-10-12 23:53:00
7:26 PM,53.6,53.6,100,29.69,1.5,Calm,Calm,-,N/A,,Mostly Cloudy,0,2011-10-13 00:26:00
7:35 PM,53.6,53.6,100,29.69,0.8,SE,3.5,-,N/A,,Mostly Cloudy,130,2011-10-13 00:35:00
7:46 PM,51.8,51.8,100,29.69,1.2,Calm,Calm,-,N/A,,Overcast,0,2011-10-13 00:46:00
7:53 PM,53.1,53.1,100,29.71,1.5,Calm,Calm,-,N/A,,Overcast,0,2011-10-13 00:53:00
8:23 PM,53.6,53.6,100,29.68,3.0,Calm,Calm,-,N/A,,Overcast,0,2011-10-13 01:23:00
8:32 PM,53.6,51.8,94,29.68,1.8,Calm,Calm,-,N/A,,Mostly Cloudy,0,2011-10-13 01:32:00
8:43 PM,53.6,51.8,94,29.68,3.0,Calm,Calm,-,N/A,,Mostly Cloudy,0,2011-10-13 01:43:00
8:51 PM,51.8,51.8,100,29.68,1.8,Calm,Calm,-,N/A,,Mostly Cloudy,0,2011-10-13 01:51:00
8:53 PM,52.0,52.0,100,29.70,1.5,Calm,Calm,-,N/A,,Mostly Cloudy,0,2011-10-13 01:53:00
9:17 PM,51.8,51.8,100,29.68,3.0,Calm,Calm,-,N/A,,Overcast,0,2011-10-13 02:17:00
9:31 PM,51.8,51.8,100,29.68,1.8,ESE,3.5,-,N/A,,Overcast,120,2011-10-13 02:31:00
9:40 PM,51.8,51.8,100,29.68,3.0,SSE,3.5,-,N/A,,Overcast,150,2011-10-13 02:40:00
9:53 PM,52.0,52.0,100,29.70,6.0,SSE,3.5,-,N/A,,Overcast,150,2011-10-13 02:53:00
10:53 PM,53.1,52.0,96,29.69,10.0,SSE,3.5,-,0.00,,Overcast,160,2011-10-13 03:53:00
11:16 PM,53.6,51.8,94,29.67,9.0,SSE,3.5,-,0.01,Rain,Light Rain,160,2011-10-13 04:16:00
11:35 PM,53.6,53.6,100,29.67,10.0,South,3.5,-,0.01,Rain,Light Rain,170,2011-10-13 04:35:00
11:53 PM,53.6,51.8,94,29.66,10.0,ESE,3.5,-,N/A,Rain,Light Rain,120,2011-10-13 04:53:00